• Join FlightAware (Why Join?)
  • Login
  • US Flag GB Flag 
23:45 EST


 

Airport Tracker/Info


-or-


 

Live Flight TrackerFlight Track Log ✈ AAY875 ✈ 13-Feb-2014 ✈ KBGR - KPIE

Flight Track Log - Related Links

Times and Time Zones

All times are in EST time to prevent confusion due to time zone crossing. See the AAY875 flight status page for this flight to view local times or setup timezone preferences in your user account.

Time Position Orientation Groundspeed Altitude Reporting Facility
EST Latitude Longitude Course Direction KTS MPH feet Rate Location/Type
17:38 44.8186 -68.9539 240° Southwest 269 310 3,200  Level Boston Center
17:39 44.7883 -69.0561 247° West 279 321 5,600 2,460 Climbing Boston Center
17:40 44.7481 -69.1553 240° Southwest 286 329 8,200 2,460 Climbing Boston Center
17:41 44.7075 -69.2547 240° Southwest 288 331 10,700 1,560 Climbing Boston Center
17:43 44.5514 -69.5951 240° Southwest  Level FlightAware Approximate
17:43 44.6525 -69.3836 239° Southwest 315 362 11,700  Level Boston Center
17:44 44.4992 -69.7229 240° Southwest  Level FlightAware Approximate
17:44 44.6014 -69.5078 240° Southwest 351 404 12,600  Level Boston Center
17:45 44.5456 -69.6422 240° Southwest 386 444 14,500 1,860 Climbing Boston Center
17:46 44.4903 -69.7719 239° Southwest 387 445 16,400 1,620 Climbing Boston Center
17:47 44.4306 -69.8983 237° Southwest 401 461 17,800 1,320 Climbing Boston Center
17:48 44.3569 -70.0044 226° Southwest 372 428 19,100 1,020 Climbing Boston Center
17:49 44.2753 -70.1044 221° Southwest 384 442 19,900 780 Climbing Boston Center
17:50 44.1900 -70.2111 222° Southwest 406 467 20,700 900 Climbing Boston Center
17:51 44.1039 -70.3172 222° Southwest 411 473 21,800 1,380 Climbing Boston Center
17:52 44.0172 -70.4222 221° Southwest 411 473 23,600 2,160 Climbing Boston Center
17:53 43.9428 -70.5178 223° Southwest 362 417 26,300 1,620 Climbing Boston Center
17:54 43.8694 -70.6072 221° Southwest 350 403 26,900 420 Climbing Boston Center
17:55 43.7944 -70.6992 222° Southwest 357 411 27,200 480 Climbing Boston Center
17:56 43.7194 -70.7942 222° Southwest 362 417 27,900 600 Climbing Boston Center
17:57 43.6664 -70.8628 223° Southwest 362 417 28,500 540 Climbing Boston Center
17:58 43.5714 -70.9653 218° Southwest 363 418 29,100 480 Climbing Boston Center
17:59 43.4967 -71.0578 222° Southwest 362 417 29,500 420 Climbing Boston Center
18:00 43.4197 -71.1483 221° Southwest 365 420 30,000 240 Climbing Boston Center
18:01 43.3453 -71.2378 221° Southwest 359 413 30,000  Level Boston Center
18:02 43.2547 -71.3467 221° Southwest 361 415 30,000  Level Boston Center
18:03 43.1792 -71.4356 221° Southwest 358 412 30,000  Level Boston Center
18:04 43.1128 -71.5114 220° Southwest 362 417 30,000 -60 Level Boston Center
18:05 43.0278 -71.6139 221° Southwest 359 413 29,900  Descending Boston Center
18:06 42.9517 -71.7011 220° Southwest 357 411 30,000  Climbing Boston Center
18:07 42.8769 -71.7908 221° Southwest 357 411 30,000  Level Boston Center
18:08 42.8011 -71.8794 221° Southwest 358 412 30,000  Level Boston Center
18:09 42.7256 -71.9658 220° Southwest 357 411 30,000  Level Boston Center
18:10 42.6486 -72.0533 220° Southwest 359 413 30,000  Level Boston Center
18:11 42.5756 -72.1383 221° Southwest 350 403 30,000  Level Boston Center
18:12 42.5022 -72.2222 220° Southwest 345 397 30,000  Level Boston Center
18:13 42.4183 -72.3172 220° Southwest 348 400 30,000  Level Boston Center
18:14 42.3450 -72.4017 220° Southwest 347 399 30,000  Level Boston Center
18:15 42.2789 -72.4781 221° Southwest 350 403 30,000  Level Boston Center
18:16 42.2056 -72.5614 220° Southwest 346 398 30,000  Level Boston Center
18:17 42.1339 -72.6411 220° Southwest 338 389 30,000  Level Boston Center
18:18 42.0633 -72.7203 220° Southwest 331 381 30,000  Level Boston Center
18:19 41.9922 -72.7992 220° Southwest 330 380 30,000  Level Boston Center
18:20 41.9208 -72.8797 220° Southwest 333 383 30,000  Level Boston Center
18:21 41.8494 -72.9589 220° Southwest 334 384 30,000  Level Boston Center
18:22 41.7778 -73.0406 220° Southwest 336 387 30,000  Level Boston Center
18:23 41.6903 -73.1372 220° Southwest 339 390 30,000  Level Boston Center
18:24 41.6167 -73.2172 219° Southwest 339 390 30,000  Level Boston Center
18:25 41.5586 -73.2825 220° Southwest 342 394 30,000  Level Boston Center
18:26 41.4658 -73.3828 219° Southwest 345 397 30,000  Level Boston Center
18:27 41.3917 -73.4644 220° Southwest 347 399 30,000  Level Boston Center
18:28 41.3183 -73.5456 220° Southwest 347 399 30,000  Level Boston Center
18:29 41.2514 -73.6369 226° Southwest 354 407 30,000  Level Boston Center
18:30 41.1903 -73.7397 232° Southwest 356 410 30,000  Level Boston Center
18:31 41.1275 -73.8433 231° Southwest 360 414 30,000  Level Boston Center
18:32 41.0667 -73.9469 232° Southwest 359 413 30,000  Level Boston Center
18:33 41.0036 -74.0492 231° Southwest 360 414 30,000  Level Boston Center
18:34 40.9436 -74.1531 233° Southwest 358 412 30,000 -60 Level Boston Center
18:36 40.8506 -74.2989 230° Southwest 366 421 29,900 -60 Descending New York Center
18:37 40.7892 -74.4028 232° Southwest 366 421 29,900  Level New York Center
18:38 40.7253 -74.5089 232° Southwest 366 421 29,900  Level New York Center
18:39 40.6636 -74.6147 232° Southwest 366 421 29,900  Level New York Center
18:40 40.5978 -74.7178 230° Southwest 366 421 29,900  Level New York Center
18:41 40.5297 -74.8175 228° Southwest 366 421 29,900  Level New York Center
18:42 40.4617 -74.9144 227° Southwest 366 421 29,900  Level New York Center
18:43 40.3917 -75.0139 227° Southwest 366 421 29,900  Level New York Center
18:44 40.3233 -75.1103 227° Southwest 371 427 30,000  Climbing New York Center
18:45 40.2550 -75.2094 228° Southwest 371 427 30,000 -60 Level New York Center
18:46 40.1847 -75.3081 227° Southwest 376 433 29,900  Descending New York Center
18:47 40.1142 -75.4067 227° Southwest 376 433 30,000  Climbing New York Center
18:48 40.0347 -75.5181 227° Southwest 376 433 29,900  Descending New York Center
18:49 39.9594 -75.6214 226° Southwest 376 433 30,000  Climbing New York Center
18:50 39.8886 -75.7244 228° Southwest 381 438 29,900  Descending New York Center
18:51 39.8169 -75.8411 231° Southwest 393 452 30,000 180 Climbing New York Center
18:52 39.7453 -75.9547 231° Southwest 414 476 30,300 420 Climbing New York Center
18:53 39.7239 -76.1072 260° West 414 476 30,900 300 Climbing New York Center
18:54 39.7317 -76.2536 274° West 427 491 31,000  Climbing New York Center
18:55 39.7192 -76.4278 265° West 441 507 31,000  Level Washington Center
18:56 39.6561 -76.5106 225° Southwest 403 464 31,000  Level Washington Center
18:57 39.5489 -76.6008 213° Southwest 397 457 31,000 300 Level Washington Center
18:58 39.4525 -76.6828 213° Southwest 409 471 31,700 480 Climbing Washington Center
18:59 39.3578 -76.7672 215° Southwest 416 479 32,000 120 Climbing Washington Center
19:00 39.2653 -76.8433 213° Southwest 416 479 32,000  Level Washington Center
19:01 39.1686 -76.9303 215° Southwest 416 479 32,000  Level Washington Center
19:02 39.0739 -77.0139 214° Southwest 421 484 32,000  Level Washington Center
19:03 38.9831 -77.1058 218° Southwest 421 484 32,000  Level Washington Center
19:04 38.8942 -77.2025 220° Southwest 421 484 32,000  Level Washington Center
19:05 38.8053 -77.3019 221° Southwest 427 491 32,000  Level Washington Center
19:06 38.7186 -77.3956 220° Southwest 427 491 32,000  Level Washington Center
19:07 38.6294 -77.4944 221° Southwest 427 491 32,000  Level Washington Center
19:08 38.5403 -77.5903 220° Southwest 427 491 32,000  Level Washington Center
19:09 38.4511 -77.6861 220° Southwest 427 491 32,000  Level Washington Center
19:10 38.3533 -77.7919 220° Southwest 422 486 32,000  Level Washington Center
19:11 38.2617 -77.8897 220° Southwest 422 486 32,000  Level Washington Center
19:12 38.1744 -77.9847 221° Southwest 422 486 32,000  Level Washington Center
19:13 38.0828 -78.0819 220° Southwest 428 493 32,000  Level Washington Center
19:14 37.9933 -78.1739 219° Southwest 428 493 32,000  Level Washington Center
19:15 37.9100 -78.2553 218° Southwest 428 493 32,000  Level Washington Center
19:16 37.8056 -78.3542 217° Southwest 428 493 32,000  Level Washington Center
19:17 37.7097 -78.4453 217° Southwest 428 493 32,000  Level Washington Center
19:18 37.6158 -78.5361 217° Southwest 433 498 32,000  Level Washington Center
19:19 37.5197 -78.6239 216° Southwest 433 498 32,000  Level Washington Center
19:20 37.4278 -78.7119 217° Southwest 433 498 32,000  Level Washington Center
19:21 37.3422 -78.7894 216° Southwest 428 493 32,000  Level Washington Center
19:22 37.2500 -78.8794 218° Southwest 428 493 32,000  Level Washington Center
19:23 37.1539 -78.9639 215° Southwest 428 493 32,000  Level Washington Center
19:24 37.0639 -79.0511 218° Southwest 428 493 32,000  Level Washington Center
19:25 36.9694 -79.1378 216° Southwest 428 493 32,000  Level Washington Center
19:26 36.8028 -79.2894 216° Southwest 422 486 32,000  Level Atlanta Center
19:27 36.7058 -79.3756 215° Southwest 422 486 32,000  Level Atlanta Center
19:28 36.6211 -79.4528 216° Southwest 422 486 32,000  Level Atlanta Center
19:29 36.5283 -79.5383 217° Southwest 422 486 32,000  Level Atlanta Center
19:30 36.4356 -79.6233 216° Southwest 422 486 32,000  Level Atlanta Center
19:31 36.3428 -79.7083 216° Southwest 422 486 32,000  Level Atlanta Center
19:32 36.2497 -79.7933 216° Southwest 422 486 32,000  Level Atlanta Center
19:33 36.1486 -79.8833 216° Southwest 417 480 32,000  Level Atlanta Center
19:34 36.0553 -79.9653 215° Southwest 422 486 32,000  Level Atlanta Center
19:35 35.9447 -80.0247 204° Southwest 422 486 32,000  Level Atlanta Center
19:36 35.8358 -80.0814 203° Southwest 427 491 32,000  Level Atlanta Center
19:37 35.7250 -80.1353 202° Southwest 427 491 32,000  Level Atlanta Center
19:38 35.6164 -80.1942 204° Southwest 432 497 32,000  Level Atlanta Center
19:39 35.5033 -80.2503 202° Southwest 432 497 32,000  Level Atlanta Center
19:40 35.3944 -80.3064 203° Southwest 432 497 32,000  Level Atlanta Center
19:41 35.2833 -80.3597 201° Southwest 432 497 32,000  Level Atlanta Center
19:42 35.1744 -80.4128 202° Southwest 432 497 32,000  Level Atlanta Center
19:44 34.9944 -80.5031 202° Southwest 429 494 32,000  Level Jacksonville Center
19:45 34.8850 -80.5567 202° Southwest 429 494 32,000  Level Jacksonville Center
19:46 34.7919 -80.6022 202° Southwest 429 494 32,000  Level Jacksonville Center
19:47 34.6825 -80.6556 202° Southwest 424 488 32,000  Level Jacksonville Center
19:48 34.5583 -80.7219 204° Southwest 439 505 32,000  Level Jacksonville Center
19:49 34.4489 -80.7775 203° Southwest 430 495 32,000  Level Jacksonville Center
19:50 34.3450 -80.8178 198° South 423 487 32,000  Level Jacksonville Center
19:51 34.2519 -80.8678 204° Southwest 418 481 32,000  Level Jacksonville Center
19:52 34.1464 -80.9178 201° Southwest 407 468 32,000  Level Jacksonville Center
19:53 34.0389 -80.9706 202° Southwest 412 474 32,000  Level Jacksonville Center
19:54 33.9289 -81.0203 201° Southwest 417 480 32,000  Level Jacksonville Center
19:55 33.8233 -81.0725 202° Southwest 417 480 32,000 -60 Level Jacksonville Center
19:56 33.7175 -81.1272 203° Southwest 412 474 31,900  Descending Jacksonville Center
19:57 33.6097 -81.1792 202° Southwest 412 474 32,000  Climbing Jacksonville Center
19:58 33.5019 -81.2311 202° Southwest 412 474 32,000  Level Jacksonville Center
19:59 33.3942 -81.2856 203° Southwest 412 474 32,000 -60 Level Jacksonville Center
20:00 33.2864 -81.3369 202° Southwest 412 474 31,900  Descending Jacksonville Center
20:01 33.1806 -81.3886 202° Southwest 412 474 32,000  Climbing Jacksonville Center
20:02 33.0725 -81.4400 202° Southwest 412 474 32,000  Level Jacksonville Center
20:03 32.9647 -81.4936 203° Southwest 417 480 32,000  Level Jacksonville Center
20:04 32.8544 -81.5425 200° South 417 480 32,000  Level Jacksonville Center
20:05 32.7400 -81.5736 193° South 417 480 32,000  Level Jacksonville Center
20:06 32.6131 -81.6053 192° South 422 486 32,000  Level Jacksonville Center
20:07 32.5089 -81.6339 193° South 427 491 32,000  Level Jacksonville Center
20:08 32.3819 -81.6650 192° South 427 491 32,000  Level Jacksonville Center
20:09 32.2653 -81.6986 194° South 427 491 32,000  Level Jacksonville Center
20:10 32.1633 -81.7219 191° South 432 497 32,000  Level Jacksonville Center
20:11 32.0361 -81.7553 193° South 432 497 32,000  Level Jacksonville Center
20:12 31.9342 -81.7836 193° South 425 489 32,000  Level Jacksonville Center
20:13 31.8092 -81.8119 191° South 417 480 32,000  Level Jacksonville Center
20:14 31.6967 -81.8425 193° South 412 474 32,000  Level Jacksonville Center
20:15 31.5944 -81.8681 192° South 417 480 32,000  Level Jacksonville Center
20:16 31.4675 -81.9011 193° South 423 487 32,000  Level Jacksonville Center
20:17 31.3486 -81.9292 191° South 431 496 32,000 -60 Level Jacksonville Center
20:18 31.2339 -81.9597 193° South 431 496 31,900  Descending Jacksonville Center
20:19 31.1194 -81.9897 193° South 424 488 32,000  Climbing Jacksonville Center
20:20 31.0047 -82.0175 192° South 429 494 32,000  Level Jacksonville Center
20:21 30.8900 -82.0478 193° South 429 494 32,000 -60 Level Jacksonville Center
20:22 30.7756 -82.0753 192° South 429 494 31,900  Descending Jacksonville Center
20:23 30.6628 -82.1028 192° South 429 494 32,000  Climbing Jacksonville Center
20:24 30.5461 -82.1303 191° South 429 494 31,900 -420 Descending Jacksonville Center
20:25 30.4439 -82.1528 191° South 429 494 31,200 -1,020 Descending Jacksonville Center
20:26 30.3292 -82.1803 192° South 429 494 29,900 -600 Descending Jacksonville Center
20:27 30.2144 -82.2075 192° South 429 494 30,000  Climbing Jacksonville Center
20:28 30.0978 -82.2347 191° South 429 494 30,000 -60 Level Jacksonville Center
20:29 29.9831 -82.2667 194° South 429 494 29,900 -60 Descending Jacksonville Center
20:30 29.8664 -82.2961 192° South 429 494 29,900 -600 Level Jacksonville Center
20:31 29.7494 -82.3183 189° South 429 494 28,800 -1,380 Descending Jacksonville Center
20:32 29.6244 -82.3478 192° South 429 494 27,200 -900 Descending Jacksonville Center
20:33 29.4992 -82.3508 181° South 434 499 27,000 -1,080 Descending Jacksonville Center
20:34 29.3717 -82.3325 173° South 447 514 25,100 -2,160 Descending Jacksonville Center
20:35 29.2486 -82.3189 174° South 452 520 22,700 -2,400 Descending Jacksonville Center
20:36 29.1294 -82.3031 173° South 441 507 20,300 -2,400 Descending Jacksonville Center
20:37 29.0147 -82.2894 174° South 430 495 17,900 -2,400 Descending Jacksonville Center
20:38 28.9144 -82.2783 174° South 419 482 15,500 -1,560 Descending Jacksonville Center
20:40 28.6667 -82.2500 174° South 365 420 13,000 -1,140 Descending Tampa TRACON
20:41 28.5833 -82.3000 208° Southwest 311 358 11,900 -1,020 Descending Tampa TRACON
20:42 28.5500 -82.3667 240° Southwest 265 305 11,000 -1,320 Descending Tampa TRACON
20:43 28.5000 -82.4333 230° Southwest 257 296 9,500 -1,680 Descending Tampa TRACON
20:44 28.4500 -82.5000 230° Southwest 265 305 7,700 -1,620 Descending Tampa TRACON
20:45 28.4167 -82.5667 240° Southwest 267 307 6,300 -900 Descending Tampa TRACON
20:46 28.3667 -82.6167 221° Southwest 275 316 6,000 -180 Descending Tampa TRACON
20:47 28.3000 -82.6833 221° Southwest 272 313 6,000 -300 Level Tampa TRACON
20:48 28.2333 -82.7167 204° Southwest 282 325 5,400 -840 Descending Tampa TRACON
20:49 28.1500 -82.7333 190° South 279 321 4,400 -780 Descending Tampa TRACON
20:50 28.0833 -82.7667 204° Southwest 265 305 3,900 -720 Descending Tampa TRACON
20:51 28.0167 -82.7667 180° South 215 247 3,000 -660 Descending Tampa TRACON
20:52 27.9667 -82.7667 180° South 203 234 2,600 -480 Descending Tampa TRACON
20:53 27.9000 -82.7667 180° South 202 232 2,100 -480 Descending Tampa TRACON
20:54 27.8500 -82.7500 164° South 184 212 1,700 -360 Descending Tampa TRACON
20:55 27.8333 -82.7000 111° Southeast 174 200 1,400 -420 Descending Tampa TRACON
20:56 27.8500 -82.6833 41° Northeast 143 165 900 -660 Descending Tampa TRACON
20:57 27.8833 -82.6833 360° North 129 148 200 -720 Descending Tampa TRACON
20:59 27.9000 -82.6833 310° West  Level FlightAware Approximate
21:06 27.9100 -82.6875 310° West  Level Estimated